KE0YJJ-14 Weather Reports


time (UTC)temp
F
wind
direction
speed
knots
gust
knots
rain 1hr
in
rain 24hr
in
rain mn
in
humidity
%
barometer
mb
20260502223633 63 197 4.3 9.6 0.00 0.00 0.00 32
20260502223131 63 181 7.8 9.6 0.00 0.00 0.00 34
20260502222628 62 204 3.5 6.1 0.00 0.00 0.00 34
20260502222125 64 216 6.1 9.6 0.00 0.00 0.00 33
20260502221620 64 148 7.0 13.0 0.00 0.00 0.00 33
20260502221117 64 173 7.0 12.2 0.00 0.00 0.00 33
20260502220614 63 215 11.3 13.0 0.00 0.00 0.00 33
20260502220110 63 216 2.6 9.6 0.00 0.00 0.00 34
20260502215607 64 192 7.8 12.2 0.00 0.00 0.00 35
20260502215104 63 183 5.2 14.8 0.00 0.00 0.00 34
20260502214601 63 169 5.2 9.6 0.00 0.00 0.00 33
20260502214058 64 209 9.6 15.6 0.00 0.00 0.00 35
20260502213555 62 191 4.3 7.8 0.00 0.00 0.00 34
20260502213053 63 211 6.1 11.3 0.00 0.00 0.00 33
20260502212552 62 224 3.5 12.2 0.00 0.00 0.00 33
20260502212049 63 176 5.2 9.6 0.00 0.00 0.00 32
20260502211544 63 211 8.7 14.8 0.00 0.00 0.00 34
20260502211042 63 202 5.2 7.0 0.00 0.00 0.00 36
20260502210538 62 194 5.2 7.8 0.00 0.00 0.00 35
20260502210036 62 185 7.8 8.7 0.00 0.00 0.00 33
20260502205532 62 203 3.5 4.3 0.00 0.00 0.00 35
20260502205029 61 222 6.1 12.2 0.00 0.00 0.00 34
20260502204526 61 233 7.0 7.8 0.00 0.00 0.00 36
20260502204024 60 186 3.5 7.8 0.00 0.00 0.00 35
20260502203521 61 241 4.3 6.1 0.00 0.00 0.00 35
20260502203018 63 202 2.6 8.7 0.00 0.00 0.00 33
20260502202514 62 209 9.6 12.2 0.00 0.00 0.00 34
20260502202013 62 171 8.7 14.8 0.00 0.00 0.00 35
20260502201508 62 216 2.6 7.0 0.00 0.00 0.00 33
20260502201004 62 233 6.1 7.8 0.00 0.00 0.00 34
20260502200500 61 200 5.2 7.0 0.00 0.00 0.00 34
20260502195958 61 224 8.7 13.9 0.00 0.00 0.00 32
20260502195456 60 200 5.2 8.7 0.00 0.00 0.00 33
20260502194951 60 230 5.2 11.3 0.00 0.00 0.00 31
20260502194449 60 165 6.1 8.7 0.00 0.00 0.00 32
20260502193944 60 229 4.3 7.0 0.00 0.00 0.00 32
20260502193442 60 273 8.7 12.2 0.00 0.00 0.00 31
20260502192937 60 135 7.0 13.0 0.00 0.00 0.00 31
20260502192434 60 218 4.3 5.2 0.00 0.00 0.00 30
20260502191931 60 199 7.0 12.2 0.00 0.00 0.00 30
20260502191429 60 215 5.2 6.1 0.00 0.00 0.00 31
20260502190927 60 202 5.2 7.8 0.00 0.00 0.00 30
20260502190424 59 237 6.1 8.7 0.00 0.00 0.00 29
20260502185920 59 232 4.3 7.0 0.00 0.00 0.00 31
20260502185415 60 102 7.8 13.9 0.00 0.00 0.00 31
20260502184912 59 158 4.3 9.6 0.00 0.00 0.00 29
20260502184251 57 157 9.6 13.0 0.00 0.00 0.00 32
20260502183748 57 157 9.6 13.0 0.00 0.00 0.00 32
20260502183244 57 157 9.6 13.0 0.00 0.00 0.00 32
20260502182739 59 203 8.7 9.6 0.00 0.00 0.00 31
20260502182235 59 235 7.8 9.6 0.00 0.00 0.00 33
20260502181732 58 168 5.2 7.8 0.00 0.00 0.00 33
20260502181232 58 213 5.2 7.8 0.00 0.00 0.00 33
20260502180728 57 163 6.1 12.2 0.00 0.00 0.00 32
20260502180226 58 233 7.8 9.6 0.00 0.00 0.00 33
20260502170150 56 199 10.4 15.6 0.00 0.00 0.00 33
20260502164136 55 175 6.1 7.8 0.00 0.00 0.00 35
20260502163632 56 206 3.5 7.8 0.00 0.00 0.00 36
20260502163129 55 216 5.2 8.7 0.00 0.00 0.00 34
20260502162626 54 200 4.3 7.0 0.00 0.00 0.00 33
20260502162123 55 191 10.4 13.9 0.00 0.00 0.00 33
20260502161620 56 215 8.7 12.2 0.00 0.00 0.00 34
20260502161117 54 206 4.3 8.7 0.00 0.00 0.00 35
20260502160615 55 198 7.0 11.3 0.00 0.00 0.00 35
20260502160114 54 214 9.6 11.3 0.00 0.00 0.00 35
20260502152028 54 212 7.0 13.0 0.00 0.00 0.00 35
20260502151525 53 205 7.0 11.3 0.00 0.00 0.00 37
20260502151022 53 201 4.3 7.8 0.00 0.00 0.00 37
20260502150520 52 249 7.8 11.3 0.00 0.00 0.00 37
20260502130404 44 145 3.5 5.2 0.00 0.00 0.00 52
20260502123347 41 173 5.2 7.8 0.00 0.00 0.00 53
20260502122844 41 186 4.3 6.1 0.00 0.00 0.00 53
20260502122339 41 197 3.5 6.1 0.00 0.00 0.00 53
20260502121839 41 182 4.3 7.0 0.00 0.00 0.00 53
20260502121335 40 192 4.3 7.8 0.00 0.00 0.00 54
20260502120833 40 190 5.2 7.8 0.00 0.00 0.00 54
20260502120329 40 172 7.0 7.8 0.00 0.00 0.00 55
20260502115826 40 196 3.5 7.8 0.00 0.00 0.00 55
20260502115323 39 179 4.3 6.1 0.00 0.00 0.00 56
20260502114820 39 169 4.3 6.1 0.00 0.00 0.00 57
20260502114317 39 195 4.3 5.2 0.00 0.00 0.00 57
20260502113814 39 180 2.6 7.0 0.00 0.00 0.00 59
20260502113311 39 171 6.1 7.8 0.00 0.00 0.00 61
20260502112809 38 184 6.1 7.8 0.00 0.00 0.00 63
20260502112306 38 188 4.3 5.2 0.00 0.00 0.00 64
20260502111803 38 167 3.5 7.0 0.00 0.00 0.00 64
20260502111301 37 186 3.5 5.2 0.00 0.00 0.00 63
20260502110758 37 189 2.6 5.2 0.00 0.00 0.00 64
20260502110256 37 161 2.6 6.1 0.00 0.00 0.00 64
20260502105754 37 178 4.3 7.0 0.00 0.00 0.00 64
20260502105250 37 191 2.6 5.2 0.00 0.00 0.00 64
20260502104748 37 192 3.5 6.1 0.00 0.00 0.00 64
20260502104245 37 187 3.5 5.2 0.00 0.00 0.00 64
20260502103742 38 169 3.5 7.0 0.00 0.00 0.00 65
20260502103240 38 195 7.0 7.8 0.00 0.00 0.00 66
20260502102738 38 195 5.2 7.0 0.00 0.00 0.00 66
20260502102233 37 185 5.2 7.0 0.00 0.00 0.00 66
20260502101732 37 195 4.3 6.1 0.00 0.00 0.00 66
20260502101230 37 198 4.3 6.1 0.00 0.00 0.00 66
20260502100727 37 190 6.1 7.0 0.00 0.00 0.00 66
20260502100226 37 179 4.3 5.2 0.00 0.00 0.00 64
20260502091200 38 194 4.3 6.1 0.00 0.00 0.00 63
20260502090657 38 212 4.3 6.1 0.00 0.00 0.00 63
20260502090154 39 199 5.2 8.7 0.00 0.00 0.00 62
20260502071055 38 192 2.6 2.6 0.00 0.00 0.00 60
20260502070553 38 191 1.7 4.3 0.00 0.00 0.00 59
20260502070051 38 194 0.9 4.3 0.00 0.00 0.00 59
20260502065549 38 174 1.7 2.6 0.00 0.00 0.00 59
20260502065046 38 184 1.7 5.2 0.00 0.00 0.00 59
20260502064545 38 192 0.9 2.6 0.00 0.00 0.00 59
20260502064041 38 189 0.9 2.6 0.00 0.00 0.00 58
20260502063539 38 204 0.9 2.6 0.00 0.00 0.00 58
20260502063037 38 196 0.9 1.7 0.00 0.00 0.00 57
20260502062534 39 185 1.7 2.6 0.00 0.00 0.00 57
20260502062032 39 198 0.9 1.7 0.00 0.00 0.00 56
20260502061530 39 194 1.7 2.6 0.00 0.00 0.00 56
20260502061026 39 189 0.9 1.7 0.00 0.00 0.00 55
20260502060522 39 195 0.9 1.7 0.00 0.00 0.00 55
20260502060019 39 183 1.7 1.7 0.00 0.00 0.00 55
20260502055516 39 196 0.9 0.9 0.00 0.00 0.00 55
20260502055015 39 191 0.9 1.7 0.00 0.00 0.00 55
20260502054513 39 192 0.9 1.7 0.00 0.00 0.00 55
20260502054010 39 192 0.9 1.7 0.00 0.00 0.00 55
20260502053507 38 193 0.9 0.9 0.00 0.00 0.00 55
20260502053005 39 197 0.0 0.9 0.00 0.00 0.00 55
20260502052503 39 192 0.9 1.7 0.00 0.00 0.00 55
20260502052001 39 191 0.9 0.9 0.00 0.00 0.00 54
20260502051458 39 204 0.9 1.7 0.00 0.00 0.00 53
20260502050955 40 191 1.7 2.6 0.00 0.00 0.00 53
20260502050452 39 192 0.9 1.7 0.00 0.00 0.00 54
20260502045949 39 194 0.9 0.9 0.00 0.00 0.00 55
20260502045446 39 193 1.7 2.6 0.00 0.00 0.00 56
20260502044943 38 190 0.0 0.9 0.00 0.00 0.00 55
20260502044438 39 191 0.0 0.9 0.00 0.00 0.00 53
20260502043936 40 182 0.0 1.7 0.00 0.00 0.00 52
20260502043433 40 196 0.0 0.9 0.00 0.00 0.00 53
20260502042932 40 199 0.9 1.7 0.00 0.00 0.00 52
20260502042430 41 190 0.9 1.7 0.00 0.00 0.00 51
20260502041927 40 189 0.9 1.7 0.00 0.00 0.00 51
20260502041425 41 196 0.9 1.7 0.00 0.00 0.00 53
20260502040922 40 197 0.9 1.7 0.00 0.00 0.00 55
20260502040418 40 196 0.0 0.0 0.00 0.00 0.00 55
20260502035914 40 192 0.0 0.9 0.00 0.00 0.00 55
20260502035411 40 196 0.0 0.0 0.00 0.00 0.00 54
20260502034909 40 192 0.0 0.9 0.00 0.00 0.00 54
20260502034407 40 192 0.0 0.9 0.00 0.00 0.00 54
20260502033905 40 192 0.0 0.9 0.00 0.00 0.00 55
20260502033403 40 193 0.9 1.7 0.00 0.00 0.00 55
20260502032859 39 193 0.9 1.7 0.00 0.00 0.00 55
20260502032355 40 190 0.9 0.9 0.00 0.00 0.00 55
20260502031853 41 190 0.9 0.9 0.00 0.00 0.00 55
20260502031351 41 196 0.9 0.9 0.00 0.00 0.00 55
20260502030849 42 197 0.9 0.9 0.00 0.00 0.00 54
20260502030347 42 198 0.0 0.0 0.00 0.00 0.00 53
20260502025844 43 198 0.0 0.0 0.00 0.00 0.00 51
20260502025341 43 198 0.9 0.9 0.00 0.00 0.00 51
20260502024839 43 197 0.9 0.9 0.00 0.00 0.00 51
20260502024337 43 199 0.9 0.9 0.00 0.00 0.00 52
20260502023834 43 199 0.9 0.9 0.00 0.00 0.00 53
20260502023332 43 198 0.0 0.9 0.00 0.00 0.00 53
20260502022830 43 198 0.0 0.0 0.00 0.00 0.00 55
20260502022326 44 198 0.0 0.0 0.00 0.00 0.00 52
20260502021823 44 198 0.0 0.9 0.00 0.00 0.00 52
20260502021320 44 197 0.9 0.9 0.00 0.00 0.00 52
20260502020817 44 200 0.0 0.0 0.00 0.00 0.00 50
20260502020315 44 197 0.9 0.9 0.00 0.00 0.00 50
20260502015812 45 194 0.9 0.9 0.00 0.00 0.00 50
20260502015308 45 194 1.7 1.7 0.00 0.00 0.00 49
20260502014806 46 202 0.9 0.9 0.00 0.00 0.00 48
20260502014303 46 202 0.0 0.0 0.00 0.00 0.00 48
20260502013759 46 202 0.0 0.0 0.00 0.00 0.00 48
20260502013254 46 202 0.0 0.0 0.00 0.00 0.00 48
20260502012751 46 202 0.0 0.0 0.00 0.00 0.00 45
20260502012249 46 202 0.0 0.0 0.00 0.00 0.00 46
20260502011746 46 202 0.0 0.0 0.00 0.00 0.00 46
20260502011242 47 202 0.0 0.0 0.00 0.00 0.00 44
20260502010740 47 202 0.0 0.0 0.00 0.00 0.00 43
20260502010236 47 213 0.9 0.9 0.00 0.00 0.00 42
20260502005733 48 202 0.0 0.0 0.00 0.00 0.00 41
20260502005231 48 202 0.0 0.9 0.00 0.00 0.00 40
20260502004727 48 205 0.9 0.9 0.00 0.00 0.00 39
20260502004224 49 208 0.0 0.9 0.00 0.00 0.00 39
20260502003722 49 206 0.9 1.7 0.00 0.00 0.00 39
20260502003219 49 204 0.0 0.9 0.00 0.00 0.00 39
20260502002714 49 203 0.0 0.9 0.00 0.00 0.00 40
20260502002213 50 202 0.0 0.9 0.00 0.00 0.00 38
20260502001709 50 202 0.0 0.9 0.00 0.00 0.00 39
20260502001208 50 217 0.0 0.9 0.00 0.00 0.00 37
20260502000704 50 209 0.0 1.7 0.00 0.00 0.00 37
20260502000203 49 215 0.9 0.9 0.00 0.00 0.00 37
20260501235658 50 212 0.9 1.7 0.00 0.00 0.00 35
20260501235154 51 207 0.9 1.7 0.00 0.00 0.00 34
20260501234650 51 211 0.9 1.7 0.00 0.00 0.00 33
20260501234147 51 202 2.6 4.3 0.00 0.00 0.00 33
20260501233645 51 202 2.6 2.6 0.00 0.00 0.00 36
20260501233142 51 226 0.9 1.7 0.00 0.00 0.00 34
20260501232638 52 214 0.9 2.6 0.00 0.00 0.00 31
20260501232136 52 201 0.9 4.3 0.00 0.00 0.00 30
20260501231633 52 209 1.7 2.6 0.00 0.00 0.00 31
20260501231131 52 202 0.9 1.7 0.00 0.00 0.00 35
20260501230630 52 212 0.9 1.7 0.00 0.00 0.00 37
20260501230127 53 198 1.7 2.6 0.00 0.00 0.00 35
20260501225625 53 203 0.9 2.6 0.00 0.00 0.00 33
20260501225121 53 202 0.9 2.6 0.00 0.00 0.00 34
20260501224618 52 228 2.6 2.6 0.00 0.00 0.00 34
20260501224115 52 211 1.7 1.7 0.00 0.00 0.00 35